Prox-1
1 44339U 19036A   25044.51136826  .00016440  00000-0  22964-2 0  9999
2 44339  23.9982 102.1500 0007915 183.4597 176.5845 14.75998181300828
SONATE
1 44400U 19038Q   25044.49884578  .00068860  00000-0  89343-3 0  9999
2 44400  97.7089  59.2545 0007564 331.2851  28.7986 15.58588147311321
Taurus 1
1 44530U 19059C   25044.79047468  .00011888  00000-0  23314-2 0  9991
2 44530  98.5914 179.0247 0009157  31.7355 328.4396 14.62864299286990
Duchifat 3
1 44854U 19089C   25044.28784566  .00040202  00000-0  11926-2 0  9992
2 44854  36.9499   7.8865 0010232 293.2255  66.7420 15.33842984285071
TO-108
1 44881U 19093C   25044.83031969  .00001885  00000-0  22632-3 0  9991
2 44881  97.8037 122.8830 0012701 249.6879 110.2972 14.85127298278894
FloripaSat 1
1 44885U 19093G   25044.81565595  .00008366  00000-0  74756-3 0  9995
2 44885  97.8220 132.3489 0010543 230.9100 129.1184 14.96117851279420
RS-44
1 44909U 19096E   25044.45592746  .00000041  00000-0  12312-3 0  9995
2 44909  82.5230 304.4538 0216837 206.8692 152.1048 12.79738285239833
UPMSat 2
1 46276U 20061E   25044.24147535  .00044519  00000-0  72239-3 0  9999
2 46276  97.2627 116.0449 0000185   4.1400 355.9855 15.52620744247322
SALSAT
1 46495U 20068K   25044.47185256  .00011027  00000-0  51684-3 0  9995
2 46495  97.8487  17.4568 0011564 194.5197 165.5707 15.19821236240877
CubeSX-Sirius-HSE
1 47951U 21022V   25044.86595513  .00082613  00000-0  13509-2 0  9990
2 47951  97.4343 312.1217 0008691  19.3682 340.7899 15.52204104215684
CubeSX-HSE
1 47952U 21022W   25044.78197543  .00085021  00000-0  13668-2 0  9995
2 47952  97.4349 312.2122 0008339  14.3194 345.8293 15.52673917215685
KSU-Cubesat
1 47954U 21022Y   25044.48652708  .00223102  00000-0  16852-2 0  9995
2 47954  97.4318 315.9277 0005719  43.0539 317.1170 15.71766037215611
GRBAlpha
1 47959U 21022AD  25044.80804439  .00081374  00000-0  13149-2 0  9995
2 47959  97.4333 312.4001 0008722  18.4253 341.7314 15.52541366214512
Orbicraft-Zorkiy
1 47960U 21022AE  25044.81396584  .00144388  00000-0  15639-2 0  9996
2 47960  97.4327 315.4608 0006538  26.1823 333.9765 15.63062947215378
TUBIN
1 48900U 21059X   25044.78275056  .00042949  00000-0  82845-3 0  9991
2 48900  97.6656 205.7809 0005112 305.8722  54.2053 15.47703087202059
LEDSAT
1 49069U 21073D   25044.15385835  .00043594  00000-0  94460-3 0  9995
2 49069  97.4048 122.2355 0013169 143.1353 217.0803 15.44214059193371
CUTE
1 49263U 21088D   25044.17738949  .00026142  00000-0  63709-3 0  9999
2 49263  97.4631 117.4640 0005649 308.7969  51.2772 15.40872705186463
TeikyoSat 4
1 49396U 21102B   25044.50627415  .00003331  00000-0  22752-3 0  9993
2 49396  97.4282  87.0771 0013201 163.9047 196.2603 15.06760797179060
Z-Sat
1 49399U 21102E   25044.86711205  .00007504  00000-0  42995-3 0  9993
2 49399  97.3981  89.8638 0019665 141.6627 218.6007 15.12718924179471
KOSEN 1
1 49402U 21102H   25044.54491965  .00011343  00000-0  56367-3 0  9995
2 49402  97.3890  92.1589 0017955 122.3440 237.9535 15.17674541179679
HO-113
1 50466U 21131B   25044.84729835  .00001138  00000-0  37112-3 0  9990
2 50466  98.5134 134.7935 0005153 119.5142 240.6560 14.40531922164782
IRIS-A
1 51044U 22002BN  25044.76517730  .00081836  00000-0  11018-2 0  9990
2 51044  97.3450 119.7221 0004074 242.2632 117.8210 15.57572177171650
Foresail-1
1 52766U 22057AL  25044.66675730  .00081109  00000-0  11096-2 0  9995
2 52766  97.5981 186.1035 0006259 332.7746  27.3180 15.57131740151670
SNUGLITE 2
1 52899U 22065F   25044.56068279  .00002340  00000-0  46949-3 0  9990
2 52899  98.1477 187.8343 0008531 115.0727 245.1361 14.62609720139524
IO-117
1 53106U 22080B   25042.50223640 -.00000003  00000-0  00000-0 0  9996
2 53106  70.1392 109.3763 0008154  50.6584 309.4797  6.42557620 60646
FO-118
1 54684U 22167C   25044.77352562  .00417484  00000-0  18301-2 0  9990
2 54684  97.6083 208.1900 0008313 312.0362  48.0198 15.83532274121660
SO-120
1 56992U 23084BU  25042.76759540  .17342116  26494-5  33638-3 0  9995
2 56992  97.5047 178.6720 0014759 276.3055  83.6566 16.46134597 93271
UmKA 1 (RS40S)
1 57172U 23091G   25044.84197284  .00009206  00000-0  52231-3 0  9998
2 57172  97.5764 100.8909 0015427  18.8036 341.3762 15.13079950 89962
CubeBel-2 (EU11S)
1 57175U 23091K   25044.86554052  .00012535  00000-0  65726-3 0  9995
2 57175  97.5766 101.4622 0013639  29.4172 330.7825 15.15827619 90002
VERONIKA
1 58261U 23174F   25044.78740510  .00063348  00000-0  13655-2 0  9992
2 58261  97.4287 126.4456 0007251 105.5470 254.6579 15.44339717 70678
KAFASAT
1 58317U 23174BP  25044.81410103  .00179294  00000-0  19135-2 0  9997
2 58317  97.4170 129.7109 0002666  47.3093 312.8390 15.63347945 70919
ENSO
1 58470U 23185J   25044.79891328  .00046726  00000-0  11060-2 0  9990
2 58470  97.3908 117.3574 0009154 137.3548 222.8411 15.41604188 67113
EIRSAT-1
1 58472U 23185L   25044.82089231  .00059785  00000-0  12391-2 0  9995
2 58472  97.3899 118.0498 0008124 138.2321 221.9550 15.45506280 67169
SONATE-2
1 59112U 24043Q   25044.77224079  .00024364  00000-0  84339-3 0  9993
2 59112  97.4974 174.2281 0012194 163.7711 196.3922 15.29792326 52597
MO-122
1 60209U 24125G   25044.02385038  .00020669  00000-0  70789-3 0  9992
2 60209  97.2938 257.2942 0020747 191.7331 168.3429 15.30031932 34099
GRBBeta
1 60237U 24128C   25044.48842163  .00005905  00000-0  47014-3 0  9994
2 60237  61.9928 123.8410 0040291  30.3863 329.9550 15.00832215 32761
Curium One
1 60242U 24128H   25044.47602307  .00008946  00000-0  68037-3 0  9999
2 60242  61.9832 123.5375 0040619  24.6048 335.6969 15.02094980 32773
ROBUSTA-3A
1 60243U 24128J   25044.51371540  .00008528  00000-0  65663-3 0  9995
2 60243  61.9897 123.8839 0038801  22.6728 337.6066 15.01731742 32779
CatSat
1 60246U 24125J   25044.31861341  .00013063  00000-0  48080-3 0  9990
2 60246  97.2723 257.9209 0046414 145.9746 214.4485 15.26943971 32223
HYPERVIEW-1G (RS66S)
1 61772U 24199AP  25044.83457498  .00026488  00000-0  94825-3 0  9990
2 61772  97.3726 274.3258 0014071 245.1127 114.8651 15.28653116 59238
AO-123
1 61781U 24199AY  25044.80554154  .00011317  00000-0  44538-3 0  9995
2 61781  97.3733 274.0710 0015157 246.4287 113.5359 15.25693765 59213
POEM 4 (BGS ARPIT)
1 62461U 24253C   25044.81250088  .00162998  00000-0  76948-3 0  9994
2 62461  55.2197  40.5983 0012558  50.9917 309.2249 15.82028336  7106
